Location: Newark
(39.8500°N, 99.5772°W)
Time: 15:26:10
(UTC+00:00)

Envisat - Visible Passes

Search period start: 20 August 2019 00:00
Search period end: 30 August 2019 00:00
Orbit: 764 x 766 km, 98.1° (Epoch: 20 August)

Date Brightness Start Highest point End Pass type
(mag) Time Alt. Az. Time Alt. Az. Time Alt. Az.
20 Aug 5.5 01:52:35 10° SSW 01:56:42 25° W 02:00:50 10° NW visible
22 Aug 6.0 02:19:56 10° WSW 02:22:27 14° W 02:24:59 10° WNW visible
25 Aug 5.8 02:07:44 10° SW 02:11:05 18° W 02:14:28 10° NW visible
28 Aug 5.6 01:55:49 10° SW 01:59:45 22° W 02:03:41 10° NW visible
